• In Moldova, Republic
  • List of Countries
  • For 7 days
  • Water Temperature
  • Satellite Maps
  • Weather Map
  • Weather Widgets
  • user-avatar
    Login

    Hourly Weather Hobart

    Today, 16 August, Thursday

    Time Temperature Precipitation Wind Pressure Humidity
    00:00 +5°C° 0.1 mm 6 mps 732 mmHg 83%
    01:00 +5°C° 0.1 mm 7 mps 733 mmHg 82%
    02:00 +5°C° 0 mm 7 mps 733 mmHg 83%
    03:00 +4°C° 0 mm 6 mps 734 mmHg 83%
    04:00 +4°C° 0 mm 6 mps 734 mmHg 84%
    05:00 +4°C° 0.1 mm 6 mps 734 mmHg 84%
    06:00 +4°C° 0.1 mm 6 mps 735 mmHg 84%
    07:00 +4°C° 0.1 mm 7 mps 735 mmHg 84%
    08:00 +5°C° 0 mm 7 mps 736 mmHg 77%
    09:00 +6°C° 0 mm 8 mps 736 mmHg 70%
    10:00 +6°C° 0 mm 7 mps 737 mmHg 64%
    11:00 +7°C° 0 mm 8 mps 737 mmHg 63%
    12:00 +7°C° 0 mm 8 mps 738 mmHg 63%
    13:00 +7°C° 0 mm 8 mps 738 mmHg 63%
    14:00 +7°C° 0 mm 8 mps 738 mmHg 64%
    15:00 +8°C° 0 mm 7 mps 739 mmHg 66%
    16:00 +7°C° 0 mm 5 mps 739 mmHg 67%
    17:00 +7°C° 0 mm 5 mps 739 mmHg 73%
    18:00 +6°C° 0 mm 4 mps 740 mmHg 78%
    19:00 +5°C° 0 mm 4 mps 740 mmHg 84%
    20:00 +5°C° 0 mm 4 mps 741 mmHg 86%
    21:00 +4°C° 0 mm 4 mps 741 mmHg 88%
    22:00 +4°C° 0 mm 3 mps 741 mmHg 89%
    23:00 +4°C° 0 mm 3 mps 741 mmHg 90%

    Tomorrow, 17 August, Friday

    Time Temperature Precipitation Wind Pressure Humidity
    00:00 +4°C° 0 mm 3 mps 741 mmHg 91%
    01:00 +4°C° 0 mm 3 mps 741 mmHg 92%
    02:00 +4°C° 0 mm 3 mps 741 mmHg 91%
    03:00 +4°C° 0 mm 3 mps 741 mmHg 90%
    04:00 +4°C° 0 mm 3 mps 741 mmHg 89%
    05:00 +4°C° 0 mm 3 mps 741 mmHg 88%
    06:00 +4°C° 0 mm 4 mps 741 mmHg 87%
    07:00 +4°C° 0 mm 4 mps 741 mmHg 86%
    08:00 +6°C° 0 mm 4 mps 741 mmHg 79%
    09:00 +7°C° 0 mm 4 mps 741 mmHg 71%
    10:00 +9°C° 0 mm 5 mps 740 mmHg 64%
    11:00 +10°C° 0 mm 5 mps 740 mmHg 60%
    12:00 +12°C° 0 mm 5 mps 739 mmHg 57%
    13:00 +13°C° 0 mm 5 mps 738 mmHg 53%
    14:00 +13°C° 0 mm 5 mps 738 mmHg 55%
    15:00 +13°C° 0 mm 5 mps 737 mmHg 57%
    16:00 +13°C° 0 mm 5 mps 737 mmHg 59%
    17:00 +12°C° 0 mm 5 mps 736 mmHg 65%
    18:00 +9°C° 0 mm 5 mps 736 mmHg 71%
    19:00 +8°C° 0 mm 5 mps 735 mmHg 77%
    20:00 +8°C° 0.3 mm 5 mps 735 mmHg 80%
    21:00 +8°C° 0.3 mm 5 mps 735 mmHg 83%
    22:00 +8°C° 0.3 mm 5 mps 735 mmHg 87%
    23:00 +7°C° 0.3 mm 4 mps 734 mmHg 89%

    Day after tomorrow, 18 August, Saturday

    Time Temperature Precipitation Wind Pressure Humidity
    00:00 +7°C° 0.3 mm 4 mps 734 mmHg 91%
    01:00 +8°C° 0.3 mm 3 mps 734 mmHg 93%
    02:00 +7°C° 0.1 mm 3 mps 734 mmHg 94%
    03:00 +7°C° 0.1 mm 3 mps 734 mmHg 94%
    04:00 +5°C° 0.1 mm 3 mps 734 mmHg 94%
    05:00 +4°C° 0 mm 3 mps 734 mmHg 95%
    06:00 +4°C° 0 mm 3 mps 734 mmHg 95%
    07:00 +3°C° 0 mm 3 mps 735 mmHg 96%
    08:00 +5°C° 0 mm 3 mps 735 mmHg 89%
    09:00 +6°C° 0 mm 4 mps 735 mmHg 82%
    10:00 +7°C° 0 mm 4 mps 735 mmHg 75%
    11:00 +7°C° 0.1 mm 4 mps 735 mmHg 71%
    12:00 +8°C° 0.1 mm 4 mps 735 mmHg 67%
    13:00 +8°C° 0.1 mm 4 mps 735 mmHg 62%
    14:00 +8°C° 0.3 mm 4 mps 735 mmHg 66%
    15:00 +7°C° 0.3 mm 4 mps 735 mmHg 69%
    16:00 +8°C° 0.3 mm 3 mps 735 mmHg 73%
    17:00 +5°C° 0.1 mm 3 mps 735 mmHg 79%
    18:00 +4°C° 0.1 mm 3 mps 736 mmHg 84%
    19:00 +3°C° 0.1 mm 3 mps 736 mmHg 90%
    20:00 +2°C° 0 mm 3 mps 736 mmHg 91%
    21:00 +2°C° 0 mm 3 mps 737 mmHg 93%
    22:00 +1°C° 0 mm 3 mps 737 mmHg 94%
    23:00 +1°C° 0.1 mm 4 mps 738 mmHg 94%

    19 August, Sunday

    Time Temperature Precipitation Wind Pressure Humidity
    00:00 +1°C° 0.1 mm 5 mps 738 mmHg 94%
    01:00 +1°C° 0.1 mm 5 mps 738 mmHg 93%
    02:00 +2°C° 0.9 mm 6 mps 739 mmHg 93%
    03:00 +1°C° 0.9 mm 8 mps 739 mmHg 93%
    04:00 +2°C° 0.9 mm 9 mps 740 mmHg 93%
    05:00 +1°C° 0.5 mm 9 mps 741 mmHg 92%
    06:00 +1°C° 0.5 mm 9 mps 742 mmHg 91%
    07:00 +1°C° 0.5 mm 9 mps 743 mmHg 90%
    08:00 +1°C° 1 mm 10 mps 743 mmHg 85%
    09:00 +2°C° 1 mm 10 mps 744 mmHg 81%
    10:00 +2°C° 1 mm 11 mps 745 mmHg 77%
    11:00 +3°C° 1.4 mm 10 mps 746 mmHg 76%
    12:00 +3°C° 1.4 mm 10 mps 746 mmHg 75%
    13:00 +3°C° 1.4 mm 9 mps 747 mmHg 75%
    14:00 +3°C° 0.5 mm 9 mps 748 mmHg 73%
    15:00 +4°C° 0.5 mm 8 mps 748 mmHg 72%
    16:00 +4°C° 0.5 mm 8 mps 749 mmHg 71%
    17:00 +3°C° 0.1 mm 7 mps 750 mmHg 76%
    18:00 +2°C° 0.1 mm 7 mps 750 mmHg 80%
    19:00 +1°C° 0.1 mm 6 mps 751 mmHg 85%
    20:00 -1°C° 0.1 mm 6 mps 752 mmHg 87%
    21:00 0°C° 0.1 mm 5 mps 752 mmHg 89%
    22:00 -1°C° 0.1 mm 5 mps 752 mmHg 91%
    23:00 -1°C° 0 mm 5 mps 752 mmHg 92%

    20 August, Monday

    Time Temperature Precipitation Wind Pressure Humidity
    00:00 -2°C° 0 mm 4 mps 752 mmHg 93%
    01:00 -2°C° 0 mm 4 mps 752 mmHg 95%
    02:00 -2°C° 0 mm 4 mps 751 mmHg 95%
    03:00 -2°C° 0 mm 3 mps 751 mmHg 96%
    04:00 -2°C° 0 mm 3 mps 751 mmHg 96%
    05:00 -2°C° 0 mm 3 mps 751 mmHg 96%
    06:00 -2°C° 0 mm 3 mps 751 mmHg 96%
    07:00 -2°C° 0 mm 3 mps 750 mmHg 96%
    08:00 0°C° 0 mm 3 mps 750 mmHg 87%
    09:00 +3°C° 0 mm 3 mps 750 mmHg 77%
    10:00 +5°C° 0 mm 3 mps 749 mmHg 68%
    11:00 +7°C° 0 mm 3 mps 749 mmHg 67%
    12:00 +7°C° 0 mm 3 mps 748 mmHg 66%
    13:00 +8°C° 0 mm 3 mps 747 mmHg 65%
    14:00 +8°C° 0.1 mm 3 mps 746 mmHg 70%
    15:00 +8°C° 0.1 mm 3 mps 745 mmHg 75%
    16:00 +7°C° 0.1 mm 3 mps 744 mmHg 80%
    17:00 +6°C° 0.2 mm 4 mps 744 mmHg 83%
    18:00 +5°C° 0.2 mm 4 mps 743 mmHg 87%
    19:00 +5°C° 0.2 mm 4 mps 743 mmHg 90%
    20:00 +4°C° 0 mm 4 mps 742 mmHg 91%
    21:00 +4°C° 0 mm 4 mps 742 mmHg 92%
    22:00 +3°C° 0 mm 4 mps 742 mmHg 93%
    23:00 +3°C° 0 mm 4 mps 742 mmHg 94%

    21 August, Tuesday

    Time Temperature Precipitation Wind Pressure Humidity
    00:00 +3°C° 0 mm 4 mps 741 mmHg 94%
    01:00 +1°C° 0 mm 4 mps 741 mmHg 94%
    02:00 +1°C° 0 mm 4 mps 741 mmHg 94%
    03:00 +1°C° 0 mm 4 mps 741 mmHg 94%
    04:00 +1°C° 0 mm 4 mps 740 mmHg 94%
    05:00 +3°C° 0.2 mm 4 mps 741 mmHg 94%
    06:00 +3°C° 0.2 mm 4 mps 741 mmHg 94%
    07:00 +4°C° 0.2 mm 4 mps 741 mmHg 93%
    08:00 +4°C° 0.4 mm 4 mps 741 mmHg 92%
    09:00 +5°C° 0.4 mm 4 mps 741 mmHg 91%
    10:00 +6°C° 0.4 mm 5 mps 741 mmHg 90%
    11:00 +6°C° 0.3 mm 5 mps 741 mmHg 87%
    12:00 +7°C° 0.3 mm 5 mps 741 mmHg 84%
    13:00 +7°C° 0.3 mm 5 mps 740 mmHg 82%
    14:00 +7°C° 0.3 mm 5 mps 740 mmHg 84%
    15:00 +6°C° 0.3 mm 5 mps 740 mmHg 87%
    16:00 +6°C° 0.3 mm 4 mps 741 mmHg 89%
    17:00 +5°C° 0.2 mm 4 mps 741 mmHg 92%
    18:00 +4°C° 0.2 mm 3 mps 742 mmHg 94%
    19:00 +3°C° 0.2 mm 3 mps 742 mmHg 96%
    20:00 +4°C° 0 mm 2 mps 742 mmHg 97%
    21:00 +3°C° 0 mm 2 mps 743 mmHg 97%
    22:00 +2°C° 0 mm 2 mps 743 mmHg 98%
    23:00 +2°C° 0 mm 2 mps 743 mmHg 98%
    Show more